This demonstration page uses our WeatherBlox Daily Observations layout. Learn more.

41.55636, -103.73856

Hourly Observations for June 26, 2020

Temp ( °F °C ) Dew Point ( °F °C ) Humidity (%) Winds ( mph kmh ) Pressure ( in mb ) Visibility ( mi km ) Precip ( " mm )
12:58 am 00:58 Mostly Cloudy with Thunderstorms 71 21.5 54 12.1 55 55 N 21 33 29.81 1010 10 16.0934 0 0
1:58 am 01:58 Clear with Nearby Thunderstorms 68 19.8 58 14.3 71 71 NE 5 7 29.85 1011 10 16.0934 0 0
2:58 am 02:58 Mostly Cloudy 69 20.7 57 13.7 64 64 N 10 17 29.9 1013 10 16.0934 0 0
3:58 am 03:58 Cloudy with Thunderstorms 63 17 59 15 88 88 NW 32 52 29.95 1014 10 16.0934 0.02 0.508
4:58 am 04:58 Windy with Storms Likely 60 15.4 56 13.3 87 87 N 23 37 29.99 1016 10 16.0934 0.2 5.08
5:58 am 05:58 Mostly Cloudy 59 15.2 55 12.9 86 86 N 12 19 29.98 1015 10 16.0934 0.02 0.508
6:58 am 06:58 Mostly Cloudy 60 15.5 55 12.6 83 83 Calm 29.96 1015 10 16.0934 0 0
7:58 am 07:58 Mostly Cloudy 58 14.7 56 13.1 90 90 NW 8 13 29.98 1015 10 16.0934 0 0
8:58 am 08:58 Mostly Cloudy 58 14.7 56 13.1 90 90 WSW 5 7 29.98 1015 10 16.0934 0 0
9:58 am 09:58 Clear 58 14.6 56 13.1 91 91 WNW 9 15 29.96 1015 10 16.0934 0.01 0.254
10:58 am 10:58 Mostly Cloudy 57 13.9 55 12.7 93 93 WNW 6 9 30 1016 10 16.0934 0 0
11:58 am 11:58 Mostly Sunny 57 13.8 55 12.8 94 94 W 6 9 30.03 1017 10 16.0934 0 0
12:58 pm 12:58 Mostly Sunny 60 15.6 57 14 90 90 NW 8 13 30.04 1017 10 16.0934 0 0
1:58 pm 13:58 Sunny 63 17.1 57 13.7 81 81 NW 8 13 30.06 1018 10 16.0934 0 0
2:58 pm 14:58 Partly Cloudy 66 19.1 57 13.9 72 72 NNE 7 11 30.03 1017 10 16.0934 0 0
3:58 pm 15:58 Mostly Cloudy 69 20.8 59 14.9 69 69 NE 6 9 30.04 1017 10 16.0934 0 0
4:58 pm 16:58 Mostly Sunny 70 21.3 59 15.1 68 68 ENE 7 11 30.05 1018 10 16.0934 0 0
5:58 pm 17:58 Mostly Cloudy 74 23.1 58 14.6 59 59 E 8 13 30.03 1017 10 16.0934 0 0
6:58 pm 18:58 Partly Cloudy 75 24 56 13.1 51 51 Calm 29.99 1016 10 16.0934 0 0
7:58 pm 19:58 Mostly Cloudy 77 24.9 55 12.5 46 46 NNE 8 13 29.98 1015 10 16.0934 0 0
8:58 pm 20:58 Partly Cloudy 78 25.8 53 11.7 41 41 S 5 7 29.96 1015 10 16.0934 0 0
9:58 pm 21:58 Mostly Sunny 78 25.7 54 12 43 43 Calm 29.95 1014 10 16.0934 0 0
10:58 pm 22:58 Mostly Cloudy 77 25.1 55 12.6 46 46 SSE 6 9 29.96 1015 10 16.0934 0 0
11:58 pm 23:58 Mostly Sunny 72 22.1 57 14.1 61 61 S 10 17 29.91 1013 10 16.0934 0 0

Powered by AerisWeather